,,,PA_Meas_PMT16A,,PR_Meas_QMR101_102,,RH_Meas_QMH101,,SR_Meas_QMS101,,TA_Meas_QMH101,,GenWind,,GenWind,
date,time,status,PA,status,PR,status,RH,status,SR,status,TA,status,DirAvg,status,SpdAvg,
2009-01-24, 00:00:05,VALID,1009.21,VALID,0,VALID,89.3815,VALID,0,VALID,24.686,VALID,291,VALID,0,
2009-01-24, 00:01:05,VALID,1009.21,VALID,0,VALID,89.3662,VALID,0.105969,VALID,24.686,VALID,291,VALID,0,
2009-01-24, 00:02:05,VALID,1009.2,VALID,0,VALID,89.3967,VALID,0,VALID,24.725,VALID,290,VALID,0,
2009-01-24, 00:03:05,VALID,1009.19,VALID,0,VALID,89.3662,VALID,0.105969,VALID,24.7445,VALID,291,VALID,0,
2009-01-24, 00:04:05,VALID,1009.17,VALID,0,VALID,89.3891,VALID,0,VALID,24.686,VALID,331,VALID,0,
2009-01-24, 00:05:05,VALID,1009.17,VALID,0,VALID,89.4196,VALID,0,VALID,24.686,VALID,332,VALID,0,
2009-01-24, 00:06:05,VALID,1009.15,VALID,0,VALID,89.3662,VALID,0.105969,VALID,24.686,VALID,334,VALID,0,
2009-01-24, 00:07:05,VALID,1009.16,VALID,0,VALID,89.3586,VALID,0,VALID,24.686,VALID,334,VALID,0,
2009-01-24, 00:08:05,VALID,1009.16,VALID,0,VALID,89.3967,VALID,0.105969,VALID,24.6666,VALID,334,VALID,0,
2009-01-24, 00:09:05,VALID,1009.15,VALID,0,VALID,89.4348,VALID,0.105969,VALID,24.6666,VALID,334,VALID,0,
2009-01-24, 00:10:05,VALID,1009.12,VALID,0,VALID,89.4577,VALID,0,VALID,24.6666,VALID,327,VALID,0,
2009-01-24, 00:11:05,VALID,1009.14,VALID,0,VALID,89.4653,VALID,0,VALID,24.6703,VALID,310,VALID,0,
2009-01-24, 00:12:05,VALID,1009.12,VALID,0,VALID,89.5416,VALID,0,VALID,24.7074,VALID,310,VALID,0,
2009-01-24, 00:13:05,VALID,1009.13,VALID,0,VALID,89.5568,VALID,0,VALID,24.7269,VALID,310,VALID,0,
2009-01-24, 00:14:05,VALID,1009.1,VALID,0,VALID,89.5416,VALID,0,VALID,24.7464,VALID,293,VALID,0,
2009-01-24, 00:15:05,VALID,1009.1,VALID,0,VALID,89.4348,VALID,0,VALID,24.7074,VALID,277,VALID,0.330859,
2009-01-24, 00:16:05,VALID,1009.1,VALID,0,VALID,89.3738,VALID,0,VALID,24.7269,VALID,276,VALID,0.0550781,
2009-01-24, 00:17:05,VALID,1009.12,VALID,0,VALID,89.3128,VALID,0,VALID,24.7464,VALID,276,VALID,0,
2009-01-24, 00:18:05,VALID,1009.1,VALID,0,VALID,89.2213,VALID,0,VALID,24.7659,VALID,276,VALID,0,
2009-01-24, 00:19:05,VALID,1009.13,VALID,0,VALID,89.0764,VALID,0,VALID,24.7464,VALID,295,VALID,0.620313,
2009-01-24, 00:20:05,VALID,1009.13,VALID,0,VALID,89.0078,VALID,0,VALID,24.7659,VALID,296,VALID,0.1625,
2009-01-24, 00:21:05,VALID,1009.11,VALID,0,VALID,88.8324,VALID,0,VALID,24.7659,VALID,296,VALID,0.00429688,
2009-01-24, 00:22:05,VALID,1009.1,VALID,0,VALID,88.7409,VALID,0,VALID,24.7854,VALID,300,VALID,0,
2009-01-24, 00:23:05,VALID,1009.14,VALID,0,VALID,88.7028,VALID,0,VALID,24.7854,VALID,300,VALID,0,
2009-01-24, 00:24:05,VALID,1009.13,VALID,0,VALID,88.5807,VALID,0,VALID,24.7659,VALID,300,VALID,0,
2009-01-24, 00:25:05,VALID,1009.1,VALID,0,VALID,88.4816,VALID,0,VALID,24.7659,VALID,300,VALID,0,
2009-01-24, 00:26:05,VALID,1009.11,VALID,0,VALID,88.5197,VALID,0,VALID,24.7659,VALID,300,VALID,0,
2009-01-24, 00:27:05,VALID,1009.14,VALID,0,VALID,88.5502,VALID,0,VALID,24.7445,VALID,337,VALID,0,
2009-01-24, 00:28:05,VALID,1009.12,VALID,0,VALID,88.596,VALID,0,VALID,24.7464,VALID,350,VALID,0,
2009-01-24, 00:29:05,VALID,1009.12,VALID,0,VALID,88.6723,VALID,0,VALID,24.7269,VALID,350,VALID,0,
2009-01-24, 00:30:05,VALID,1009.12,VALID,0,VALID,88.6799,VALID,0,VALID,24.7074,VALID,350,VALID,0,
2009-01-24, 00:31:05,VALID,1009.1,VALID,0,VALID,88.6646,VALID,0,VALID,24.6879,VALID,352,VALID,0,
2009-01-24, 00:32:05,VALID,1009.08,VALID,0,VALID,88.8019,VALID,0,VALID,24.6684,VALID,352,VALID,0,
2009-01-24, 00:33:05,VALID,1009.08,VALID,0,VALID,88.8858,VALID,0,VALID,24.6684,VALID,352,VALID,0,
2009-01-24, 00:34:05,VALID,1009.1,VALID,0,VALID,88.962,VALID,0,VALID,24.6489,VALID,352,VALID,0,
2009-01-24, 00:35:05,VALID,1009.08,VALID,0,VALID,88.9925,VALID,0,VALID,24.6489,VALID,352,VALID,0,
2009-01-24, 00:36:05,VALID,1009.08,VALID,0,VALID,89.0459,VALID,0,VALID,24.6294,VALID,352,VALID,0,
2009-01-24, 00:37:05,VALID,1009.11,VALID,0,VALID,89.0841,VALID,0,VALID,24.6294,VALID,352,VALID,0,
2009-01-24, 00:38:05,VALID,1009.12,VALID,0,VALID,89.1527,VALID,0,VALID,24.6294,VALID,352,VALID,0,
2009-01-24, 00:39:05,VALID,1009.12,VALID,0,VALID,89.2137,VALID,0,VALID,24.6294,VALID,352,VALID,0,
2009-01-24, 00:40:05,VALID,1009.12,VALID,0,VALID,89.2747,VALID,0,VALID,24.6294,VALID,352,VALID,0,
2009-01-24, 00:41:05,VALID,1009.11,VALID,0,VALID,89.3281,VALID,0,VALID,24.6081,VALID,352,VALID,0,
2009-01-24, 00:42:05,VALID,1009.1,VALID,0,VALID,89.3662,VALID,0,VALID,24.5886,VALID,352,VALID,0,
2009-01-24, 00:43:05,VALID,1009.1,VALID,0,VALID,89.3815,VALID,0,VALID,24.5886,VALID,352,VALID,0,
2009-01-24, 00:44:05,VALID,1009.1,VALID,0,VALID,89.4272,VALID,0,VALID,24.5886,VALID,352,VALID,0,
2009-01-24, 00:45:05,VALID,1009.11,VALID,0,VALID,89.4348,VALID,0.105969,VALID,24.5886,VALID,352,VALID,0,
2009-01-24, 00:46:05,VALID,1009.13,VALID,0,VALID,89.4958,VALID,0,VALID,24.6081,VALID,348,VALID,0,
2009-01-24, 00:47:05,VALID,1009.14,VALID,0,VALID,89.4958,VALID,0,VALID,24.6276,VALID,283,VALID,0,
2009-01-24, 00:48:05,VALID,1009.12,VALID,0,VALID,89.534,VALID,0,VALID,24.6081,VALID,276,VALID,0,
2009-01-24, 00:49:05,VALID,1009.1,VALID,0,VALID,89.5263,VALID,0,VALID,24.6471,VALID,339,VALID,0.225,
2009-01-24, 00:50:05,VALID,1009.12,VALID,0,VALID,89.5035,VALID,0,VALID,24.6471,VALID,339,VALID,0,
2009-01-24, 00:51:05,VALID,1009.12,VALID,0,VALID,89.4425,VALID,0,VALID,24.6471,VALID,339,VALID,0,
2009-01-24, 00:52:05,VALID,1009.13,VALID,0,VALID,89.4272,VALID,0,VALID,24.6471,VALID,339,VALID,0,
2009-01-24, 00:53:05,VALID,1009.15,VALID,0,VALID,89.412,VALID,0.105969,VALID,24.6471,VALID,339,VALID,0.335156,
2009-01-24, 00:54:05,VALID,1009.16,VALID,0,VALID,89.4196,VALID,0.105969,VALID,24.6276,VALID,44,VALID,0.516797,
2009-01-24, 00:55:05,VALID,1009.2,VALID,0,VALID,89.3662,VALID,0,VALID,24.6081,VALID,53,VALID,0.520312,
2009-01-24, 00:56:05,VALID,1009.21,VALID,0,VALID,89.3586,VALID,0,VALID,24.6081,VALID,53,VALID,0.448828,
2009-01-24, 00:57:05,VALID,1009.22,VALID,0,VALID,89.3738,VALID,0,VALID,24.5905,VALID,53,VALID,0.376172,
2009-01-24, 00:58:05,VALID,1009.22,VALID,0,VALID,89.3738,VALID,0,VALID,24.6099,VALID,53,VALID,0.228906,
2009-01-24, 00:59:05,VALID,1009.18,VALID,0,VALID,89.3967,VALID,0,VALID,24.5691,VALID,53,VALID,0,
2009-01-24, 01:00:05,VALID,1009.19,VALID,0,VALID,89.3738,VALID,0,VALID,24.6099,VALID,53,VALID,0,
2009-01-24, 01:01:05,VALID,1009.16,VALID,0,VALID,89.4043,VALID,0,VALID,24.5905,VALID,53,VALID,0.0015625,
2009-01-24, 01:02:05,VALID,1009.15,VALID,0,VALID,89.4577,VALID,0,VALID,24.6489,VALID,53,VALID,0.0347656,
2009-01-24, 01:03:05,VALID,1009.1,VALID,0,VALID,89.4806,VALID,0,VALID,24.6294,VALID,53,VALID,0.166406,
2009-01-24, 01:04:05,VALID,1009.09,VALID,0,VALID,89.473,VALID,0,VALID,24.6099,VALID,53,VALID,0,
2009-01-24, 01:05:05,VALID,1009.06,VALID,0,VALID,89.534,VALID,0,VALID,24.6081,VALID,53,VALID,0.214844,
2009-01-24, 01:06:05,VALID,1009.05,VALID,0,VALID,89.5492,VALID,0,VALID,24.5905,VALID,53,VALID,0,
2009-01-24, 01:07:05,VALID,1009.04,VALID,0,VALID,89.5187,VALID,0,VALID,24.6099,VALID,53,VALID,0.0015625,
2009-01-24, 01:08:05,VALID,1009.05,VALID,0,VALID,89.5187,VALID,0,VALID,24.5905,VALID,53,VALID,0.187891,
2009-01-24, 01:09:05,VALID,1009.02,VALID,0,VALID,89.5416,VALID,0,VALID,24.5691,VALID,43,VALID,0.0296875,
2009-01-24, 01:10:05,VALID,1009.03,VALID,0,VALID,89.5111,VALID,0,VALID,24.571,VALID,310,VALID,0.496484,
2009-01-24, 01:11:05,VALID,1009.03,VALID,0,VALID,89.4501,VALID,0,VALID,24.571,VALID,302,VALID,0.283594,
2009-01-24, 01:12:05,VALID,1008.99,VALID,0,VALID,89.4348,VALID,0,VALID,24.5691,VALID,302,VALID,0,
2009-01-24, 01:13:05,VALID,1008.99,VALID,0,VALID,89.4043,VALID,0,VALID,24.5691,VALID,302,VALID,0,
2009-01-24, 01:14:05,VALID,1008.94,VALID,0,VALID,89.351,VALID,0,VALID,24.5886,VALID,302,VALID,0,
2009-01-24, 01:15:05,VALID,1008.94,VALID,0,VALID,89.3128,VALID,0,VALID,24.5905,VALID,303,VALID,0,
2009-01-24, 01:16:05,VALID,1008.92,VALID,0,VALID,89.2366,VALID,0,VALID,24.6099,VALID,303,VALID,0,
2009-01-24, 01:17:05,VALID,1008.88,VALID,0,VALID,89.1984,VALID,0,VALID,24.571,VALID,304,VALID,0,
2009-01-24, 01:18:05,VALID,1008.91,VALID,0,VALID,89.1374,VALID,0,VALID,24.5905,VALID,316,VALID,0.364062,
2009-01-24, 01:19:05,VALID,1008.89,VALID,0,VALID,89.0841,VALID,0,VALID,24.5515,VALID,330,VALID,0.398438,
2009-01-24, 01:20:05,VALID,1008.92,VALID,0,VALID,89.0917,VALID,0,VALID,24.4911,VALID,331,VALID,0.0195313,
2009-01-24, 01:21:05,VALID,1008.92,VALID,0,VALID,89.0688,VALID,0,VALID,24.4911,VALID,331,VALID,0,
2009-01-24, 01:22:05,VALID,1008.92,VALID,0,VALID,89.1298,VALID,0,VALID,24.5125,VALID,331,VALID,0,
2009-01-24, 01:23:05,VALID,1008.93,VALID,0,VALID,89.1527,VALID,0,VALID,24.5125,VALID,331,VALID,0,
2009-01-24, 01:24:05,VALID,1008.94,VALID,0,VALID,89.2289,VALID,0,VALID,24.493,VALID,331,VALID,0,
2009-01-24, 01:25:05,VALID,1008.91,VALID,0,VALID,89.3052,VALID,0,VALID,24.4717,VALID,331,VALID,0,
2009-01-24, 01:26:05,VALID,1008.91,VALID,0,VALID,89.3662,VALID,0.105969,VALID,24.5106,VALID,331,VALID,0,
2009-01-24, 01:27:05,VALID,1008.88,VALID,0,VALID,89.3967,VALID,0.105969,VALID,24.4893,VALID,331,VALID,0,
2009-01-24, 01:28:05,VALID,1008.87,VALID,0,VALID,89.4043,VALID,0.105969,VALID,24.4698,VALID,331,VALID,0,
2009-01-24, 01:29:05,VALID,1008.87,VALID,0,VALID,89.412,VALID,0,VALID,24.4698,VALID,331,VALID,0,
2009-01-24, 01:30:05,VALID,1008.9,VALID,0,VALID,89.4501,VALID,0.105969,VALID,24.4698,VALID,331,VALID,0,
2009-01-24, 01:31:05,VALID,1008.89,VALID,0,VALID,89.4501,VALID,0.105969,VALID,24.5106,VALID,331,VALID,0,
2009-01-24, 01:32:05,VALID,1008.9,VALID,0,VALID,89.4577,VALID,0.105969,VALID,24.4911,VALID,331,VALID,0,
2009-01-24, 01:33:05,VALID,1008.88,VALID,0,VALID,89.4958,VALID,0.105969,VALID,24.5106,VALID,331,VALID,0,
2009-01-24, 01:34:05,VALID,1008.89,VALID,0,VALID,89.5568,VALID,0.105969,VALID,24.5301,VALID,331,VALID,0,
2009-01-24, 01:35:05,VALID,1008.91,VALID,0,VALID,89.5721,VALID,0.105969,VALID,24.5106,VALID,331,VALID,0,
2009-01-24, 01:36:05,VALID,1008.9,VALID,0,VALID,89.5721,VALID,0.105969,VALID,24.4911,VALID,331,VALID,0,
2009-01-24, 01:37:05,VALID,1008.93,VALID,0,VALID,89.5568,VALID,0.105969,VALID,24.4893,VALID,331,VALID,0,
2009-01-24, 01:38:05,VALID,1008.95,VALID,0,VALID,89.595,VALID,0.105969,VALID,24.4911,VALID,331,VALID,0,
2009-01-24, 01:39:05,VALID,1008.96,VALID,0,VALID,89.6102,VALID,0.105969,VALID,24.5088,VALID,331,VALID,0,
2009-01-24, 01:40:05,VALID,1008.95,VALID,0,VALID,89.6102,VALID,0.105969,VALID,24.5496,VALID,331,VALID,0,
2009-01-24, 01:41:05,VALID,1008.99,VALID,0,VALID,89.6331,VALID,0,VALID,24.532,VALID,331,VALID,0,
2009-01-24, 01:42:05,VALID,1009,VALID,0,VALID,89.6179,VALID,0,VALID,24.5125,VALID,331,VALID,0,
2009-01-24, 01:43:05,VALID,1008.96,VALID,0,VALID,89.6407,VALID,0,VALID,24.5106,VALID,331,VALID,0,
2009-01-24, 01:44:05,VALID,1008.95,VALID,0,VALID,89.6179,VALID,0,VALID,24.493,VALID,331,VALID,0,
2009-01-24, 01:45:05,VALID,1008.95,VALID,0,VALID,89.6407,VALID,0,VALID,24.493,VALID,331,VALID,0,
2009-01-24, 01:46:05,VALID,1008.92,VALID,0,VALID,89.6407,VALID,0,VALID,24.4911,VALID,331,VALID,0,
2009-01-24, 01:47:05,VALID,1008.89,VALID,0,VALID,89.6636,VALID,0,VALID,24.493,VALID,331,VALID,0,
2009-01-24, 01:48:05,VALID,1008.89,VALID,0,VALID,89.6484,VALID,0,VALID,24.493,VALID,331,VALID,0,
2009-01-24, 01:49:05,VALID,1008.87,VALID,0,VALID,89.6712,VALID,0,VALID,24.493,VALID,331,VALID,0,
2009-01-24, 01:50:05,VALID,1008.87,VALID,0,VALID,89.6865,VALID,0,VALID,24.493,VALID,331,VALID,0,
2009-01-24, 01:51:05,VALID,1008.87,VALID,0,VALID,89.717,VALID,0,VALID,24.4735,VALID,331,VALID,0,
2009-01-24, 01:52:05,VALID,1008.86,VALID,0,VALID,89.7475,VALID,0,VALID,24.4735,VALID,331,VALID,0,
2009-01-24, 01:53:05,VALID,1008.87,VALID,0,VALID,89.7551,VALID,0,VALID,24.493,VALID,331,VALID,0,
2009-01-24, 01:54:05,VALID,1008.86,VALID,0,VALID,89.7856,VALID,0,VALID,24.4735,VALID,331,VALID,0,
2009-01-24, 01:55:05,VALID,1008.88,VALID,0,VALID,89.8161,VALID,0,VALID,24.4735,VALID,331,VALID,0,
2009-01-24, 01:56:05,VALID,1008.85,VALID,0,VALID,89.8619,VALID,0.105969,VALID,24.4522,VALID,331,VALID,0,
2009-01-24, 01:57:05,VALID,1008.86,VALID,0,VALID,89.8619,VALID,0.105969,VALID,24.4522,VALID,331,VALID,0,
2009-01-24, 01:58:05,VALID,1008.83,VALID,0,VALID,89.8771,VALID,0.105969,VALID,24.4911,VALID,331,VALID,0,
2009-01-24, 01:59:05,VALID,1008.82,VALID,0,VALID,89.9153,VALID,0.105969,VALID,24.4522,VALID,331,VALID,0,
2009-01-24, 02:00:05,VALID,1008.81,VALID,0,VALID,89.9458,VALID,0.105969,VALID,24.4698,VALID,331,VALID,0,
2009-01-24, 02:01:05,VALID,1008.79,VALID,0,VALID,89.9686,VALID,0.105969,VALID,24.4911,VALID,331,VALID,0,
2009-01-24, 02:02:05,VALID,1008.8,VALID,0,VALID,89.9915,VALID,0.105969,VALID,24.4503,VALID,331,VALID,0,
2009-01-24, 02:03:05,VALID,1008.8,VALID,0,VALID,90.0144,VALID,0,VALID,24.4911,VALID,331,VALID,0,
2009-01-24, 02:04:05,VALID,1008.81,VALID,0,VALID,90.0373,VALID,0.105969,VALID,24.4893,VALID,331,VALID,0,
2009-01-24, 02:05:05,VALID,1008.79,VALID,0,VALID,90.0373,VALID,0.105969,VALID,24.4911,VALID,331,VALID,0,
2009-01-24, 02:06:05,VALID,1008.78,VALID,0,VALID,90.0525,VALID,0.105969,VALID,24.5106,VALID,331,VALID,0,
2009-01-24, 02:07:05,VALID,1008.76,VALID,0,VALID,90.0602,VALID,0.105969,VALID,24.5496,VALID,331,VALID,0,
2009-01-24, 02:08:05,VALID,1008.76,VALID,0,VALID,90.0754,VALID,0.105969,VALID,24.5106,VALID,331,VALID,0,
2009-01-24, 02:09:05,VALID,1008.73,VALID,0,VALID,90.0525,VALID,0,VALID,24.5106,VALID,331,VALID,0,
2009-01-24, 02:10:05,VALID,1008.71,VALID,0,VALID,90.0373,VALID,0,VALID,24.5106,VALID,331,VALID,0,
2009-01-24, 02:11:05,VALID,1008.74,VALID,0,VALID,90.0449,VALID,0,VALID,24.5125,VALID,331,VALID,0,
2009-01-24, 02:12:05,VALID,1008.7,VALID,0,VALID,90.0983,VALID,0.105969,VALID,24.4911,VALID,331,VALID,0,
2009-01-24, 02:13:05,VALID,1008.72,VALID,0,VALID,90.0754,VALID,0,VALID,24.5125,VALID,331,VALID,0,
2009-01-24, 02:14:05,VALID,1008.7,VALID,0,VALID,90.0754,VALID,0,VALID,24.493,VALID,331,VALID,0,
2009-01-24, 02:15:05,VALID,1008.68,VALID,0,VALID,90.0602,VALID,0,VALID,24.5125,VALID,331,VALID,0,
2009-01-24, 02:16:04,VALID,1008.71,VALID,0,VALID,90.0525,VALID,0,VALID,24.4911,VALID,331,VALID,0,
2009-01-24, 02:17:04,VALID,1008.71,VALID,0,VALID,90.0525,VALID,0,VALID,24.5125,VALID,331,VALID,0,
2009-01-24, 02:18:04,VALID,1008.72,VALID,0,VALID,90.0373,VALID,0,VALID,24.4911,VALID,331,VALID,0,
2009-01-24, 02:19:04,VALID,1008.71,VALID,0,VALID,90.0296,VALID,0,VALID,24.4911,VALID,331,VALID,0,
2009-01-24, 02:20:04,VALID,1008.73,VALID,0,VALID,90.0144,VALID,0,VALID,24.5125,VALID,331,VALID,0,
2009-01-24, 02:21:04,VALID,1008.72,VALID,0,VALID,90.0144,VALID,0,VALID,24.532,VALID,331,VALID,0,
2009-01-24, 02:22:04,VALID,1008.75,VALID,0,VALID,90.0068,VALID,0,VALID,24.5125,VALID,331,VALID,0,
2009-01-24, 02:23:04,VALID,1008.74,VALID,0,VALID,89.9991,VALID,0,VALID,24.5125,VALID,331,VALID,0,
2009-01-24, 02:24:04,VALID,1008.73,VALID,0,VALID,89.9686,VALID,0,VALID,24.5125,VALID,331,VALID,0,
2009-01-24, 02:25:04,VALID,1008.73,VALID,0,VALID,89.9686,VALID,0,VALID,24.4911,VALID,331,VALID,0,
2009-01-24, 02:26:04,VALID,1008.74,VALID,0,VALID,89.9534,VALID,0,VALID,24.493,VALID,331,VALID,0,
2009-01-24, 02:27:04,VALID,1008.73,VALID,0,VALID,89.9153,VALID,0,VALID,24.4911,VALID,331,VALID,0,
2009-01-24, 02:28:04,VALID,1008.77,VALID,0,VALID,89.9,VALID,0,VALID,24.493,VALID,331,VALID,0,
2009-01-24, 02:29:04,VALID,1008.78,VALID,0,VALID,89.8695,VALID,0,VALID,24.4735,VALID,331,VALID,0,
2009-01-24, 02:30:04,VALID,1008.79,VALID,0,VALID,89.8466,VALID,0,VALID,24.493,VALID,331,VALID,0,
2009-01-24, 02:31:04,VALID,1008.8,VALID,0,VALID,89.8238,VALID,0,VALID,24.4911,VALID,331,VALID,0,
2009-01-24, 02:32:04,VALID,1008.8,VALID,0,VALID,89.7932,VALID,0,VALID,24.4911,VALID,331,VALID,0,
2009-01-24, 02:33:04,VALID,1008.83,VALID,0,VALID,89.7704,VALID,0,VALID,24.5106,VALID,331,VALID,0,
2009-01-24, 02:34:04,VALID,1008.84,VALID,0,VALID,89.7322,VALID,0,VALID,24.532,VALID,331,VALID,0,
2009-01-24, 02:35:04,VALID,1008.86,VALID,0,VALID,89.7475,VALID,0,VALID,24.5125,VALID,331,VALID,0,
2009-01-24, 02:36:04,VALID,1008.86,VALID,0,VALID,89.7322,VALID,0,VALID,24.532,VALID,331,VALID,0,
2009-01-24, 02:37:04,VALID,1008.87,VALID,0,VALID,89.7322,VALID,0,VALID,24.5106,VALID,64,VALID,0,
2009-01-24, 02:38:04,VALID,1008.89,VALID,0,VALID,89.7399,VALID,0,VALID,24.5515,VALID,69,VALID,0,
2009-01-24, 02:39:04,VALID,1008.92,VALID,0,VALID,89.7475,VALID,0,VALID,24.571,VALID,69,VALID,0,
2009-01-24, 02:40:04,VALID,1008.91,VALID,0,VALID,89.717,VALID,0,VALID,24.6099,VALID,69,VALID,0,
2009-01-24, 02:41:04,VALID,1008.95,VALID,0,VALID,89.7094,VALID,0.105969,VALID,24.6062,VALID,111,VALID,0,
2009-01-24, 02:42:04,VALID,1008.97,VALID,0,VALID,89.6636,VALID,0.105969,VALID,24.6276,VALID,145,VALID,0.687891,
2009-01-24, 02:43:04,VALID,1008.99,VALID,0,VALID,89.595,VALID,0.105969,VALID,24.6062,VALID,151,VALID,0.760938,
2009-01-24, 02:44:04,VALID,1008.99,VALID,0,VALID,89.534,VALID,0.105969,VALID,24.6276,VALID,147,VALID,0.669141,
2009-01-24, 02:45:04,VALID,1009.02,VALID,0,VALID,89.4882,VALID,0,VALID,24.6276,VALID,146,VALID,0.533203,
2009-01-24, 02:46:04,VALID,1009.04,VALID,0,VALID,89.4806,VALID,0.105969,VALID,24.6276,VALID,146,VALID,0.517578,
2009-01-24, 02:47:04,VALID,1009.05,VALID,0,VALID,89.4577,VALID,0.105969,VALID,24.6276,VALID,146,VALID,0.627344,
2009-01-24, 02:48:04,VALID,1009.05,VALID,0,VALID,89.4196,VALID,0,VALID,24.5886,VALID,146,VALID,0.534766,
2009-01-24, 02:49:04,VALID,1009.08,VALID,0,VALID,89.4272,VALID,0.105969,VALID,24.6062,VALID,146,VALID,0.410937,
2009-01-24, 02:50:04,VALID,1009.05,VALID,0,VALID,89.4348,VALID,0,VALID,24.6471,VALID,146,VALID,0.365234,
2009-01-24, 02:51:04,VALID,1009.05,VALID,0,VALID,89.4272,VALID,0.105969,VALID,24.6081,VALID,146,VALID,0.5625,
2009-01-24, 02:52:04,VALID,1009.04,VALID,0,VALID,89.3967,VALID,0.105969,VALID,24.6081,VALID,146,VALID,0.575391,
2009-01-24, 02:53:04,VALID,1009.05,VALID,0,VALID,89.3815,VALID,0.105969,VALID,24.6081,VALID,154,VALID,0.797266,
2009-01-24, 02:54:04,VALID,1009.05,VALID,0,VALID,89.3281,VALID,0.105969,VALID,24.5886,VALID,167,VALID,1.08984,
2009-01-24, 02:55:04,VALID,1009.03,VALID,0,VALID,89.2976,VALID,0.105969,VALID,24.5691,VALID,173,VALID,0.214453,
2009-01-24, 02:56:04,VALID,1009.03,VALID,0,VALID,89.2671,VALID,0,VALID,24.5691,VALID,179,VALID,0.415625,
2009-01-24, 02:57:04,VALID,1009.02,VALID,0,VALID,89.2061,VALID,0.105969,VALID,24.5886,VALID,150,VALID,0.373437,
2009-01-24, 02:58:04,VALID,1009,VALID,0,VALID,89.1451,VALID,0.105969,VALID,24.6081,VALID,150,VALID,0,
2009-01-24, 02:59:04,VALID,1009.01,VALID,0,VALID,89.1603,VALID,0.105969,VALID,24.6081,VALID,196,VALID,0.455859,
2009-01-24, 03:00:04,VALID,1009.01,VALID,0,VALID,89.1146,VALID,0.105969,VALID,24.6081,VALID,196,VALID,0.0828125,
2009-01-24, 03:01:04,VALID,1008.97,VALID,0,VALID,89.0612,VALID,0.105969,VALID,24.6081,VALID,195,VALID,0,
2009-01-24, 03:02:04,VALID,1008.98,VALID,0,VALID,89.0536,VALID,0.105969,VALID,24.6471,VALID,200,VALID,0.262891,
2009-01-24, 03:03:04,VALID,1008.96,VALID,0,VALID,89.0536,VALID,0.105969,VALID,24.6276,VALID,186,VALID,0.432422,
2009-01-24, 03:04:04,VALID,1008.99,VALID,0.5,VALID,89.0307,VALID,0.105969,VALID,24.6471,VALID,186,VALID,0.269141,
2009-01-24, 03:05:04,VALID,1008.99,VALID,0,VALID,89.0841,VALID,0.105969,VALID,24.6471,VALID,189,VALID,0.555859,
2009-01-24, 03:06:04,VALID,1008.98,VALID,0,VALID,89.0459,VALID,0.105969,VALID,24.6471,VALID,177,VALID,0.58125,
2009-01-24, 03:07:04,VALID,1008.99,VALID,0,VALID,89.0383,VALID,0,VALID,24.6666,VALID,181,VALID,0.451562,
2009-01-24, 03:08:04,VALID,1009,VALID,0,VALID,89.0459,VALID,0,VALID,24.6276,VALID,187,VALID,0.602734,
2009-01-24, 03:09:04,VALID,1008.98,VALID,0,VALID,89.0612,VALID,0.105969,VALID,24.6276,VALID,203,VALID,0.652734,
2009-01-24, 03:10:04,VALID,1008.95,VALID,0,VALID,89.0993,VALID,0,VALID,24.6489,VALID,202,VALID,0.580078,
2009-01-24, 03:11:04,VALID,1008.95,VALID,0,VALID,89.1374,VALID,0.105969,VALID,24.6276,VALID,184,VALID,0.518359,
2009-01-24, 03:12:04,VALID,1008.94,VALID,0,VALID,89.1984,VALID,0.105969,VALID,24.6276,VALID,182,VALID,0.411719,
2009-01-24, 03:13:04,VALID,1008.93,VALID,0,VALID,89.2671,VALID,0,VALID,24.6276,VALID,192,VALID,0.479688,
2009-01-24, 03:14:04,VALID,1008.95,VALID,0,VALID,89.2823,VALID,0,VALID,24.6276,VALID,192,VALID,0.382031,
2009-01-24, 03:15:04,VALID,1008.93,VALID,0,VALID,89.3128,VALID,0,VALID,24.6081,VALID,192,VALID,0,
2009-01-24, 03:16:04,VALID,1008.88,VALID,0,VALID,89.3357,VALID,0,VALID,24.6081,VALID,192,VALID,0.103906,
2009-01-24, 03:17:04,VALID,1008.93,VALID,0,VALID,89.3891,VALID,0.105969,VALID,24.6081,VALID,203,VALID,0.176172,
2009-01-24, 03:18:04,VALID,1008.91,VALID,0,VALID,89.412,VALID,0.105969,VALID,24.6276,VALID,255,VALID,0.343359,
2009-01-24, 03:19:04,VALID,1008.88,VALID,0,VALID,89.4577,VALID,0.105969,VALID,24.6471,VALID,255,VALID,0.0996094,
2009-01-24, 03:20:04,VALID,1008.89,VALID,0,VALID,89.4958,VALID,0,VALID,24.6276,VALID,255,VALID,0.0640625,
2009-01-24, 03:21:04,VALID,1008.89,VALID,0,VALID,89.4958,VALID,0.105969,VALID,24.6471,VALID,255,VALID,0,
2009-01-24, 03:22:04,VALID,1008.92,VALID,0,VALID,89.4882,VALID,0,VALID,24.6471,VALID,255,VALID,0.191406,
2009-01-24, 03:23:04,VALID,1008.9,VALID,0,VALID,89.5035,VALID,0.105969,VALID,24.6471,VALID,255,VALID,0.0597656,
2009-01-24, 03:24:04,VALID,1008.92,VALID,0,VALID,89.5035,VALID,0,VALID,24.6276,VALID,255,VALID,0.379687,
2009-01-24, 03:25:04,VALID,1008.92,VALID,0,VALID,89.5035,VALID,0,VALID,24.6276,VALID,254,VALID,0.442187,
2009-01-24, 03:26:04,VALID,1008.92,VALID,0,VALID,89.4577,VALID,0,VALID,24.6081,VALID,90,VALID,0.533203,
2009-01-24, 03:27:04,VALID,1008.92,VALID,0,VALID,89.473,VALID,0.105969,VALID,24.6081,VALID,90,VALID,0.578125,
2009-01-24, 03:28:04,VALID,1008.91,VALID,0,VALID,89.4653,VALID,0.105969,VALID,24.6081,VALID,124,VALID,0.728516,
2009-01-24, 03:29:04,VALID,1008.92,VALID,0,VALID,89.4653,VALID,0.105969,VALID,24.6276,VALID,102,VALID,0.789453,
2009-01-24, 03:30:04,VALID,1008.95,VALID,0,VALID,89.4501,VALID,0,VALID,24.6276,VALID,99,VALID,0.648438,
2009-01-24, 03:31:04,VALID,1008.93,VALID,0,VALID,89.4806,VALID,0.105969,VALID,24.6276,VALID,100,VALID,0.663672,
2009-01-24, 03:32:04,VALID,1008.92,VALID,0,VALID,89.4806,VALID,0.105969,VALID,24.6276,VALID,100,VALID,0.787891,
2009-01-24, 03:33:04,VALID,1008.92,VALID,0,VALID,89.5035,VALID,0,VALID,24.6471,VALID,100,VALID,0.455078,
2009-01-24, 03:34:04,VALID,1008.9,VALID,0,VALID,89.5568,VALID,0.105969,VALID,24.6081,VALID,100,VALID,0.771875,
2009-01-24, 03:35:04,VALID,1008.9,VALID,0,VALID,89.5035,VALID,0,VALID,24.6081,VALID,113,VALID,0.721484,
2009-01-24, 03:36:04,VALID,1008.9,VALID,0,VALID,89.4958,VALID,0.105969,VALID,24.6276,VALID,122,VALID,0.496875,
2009-01-24, 03:37:04,VALID,1008.88,VALID,0,VALID,89.4882,VALID,0.105969,VALID,24.6081,VALID,135,VALID,0.0558594,
2009-01-24, 03:38:04,VALID,1008.86,VALID,0,VALID,89.473,VALID,0,VALID,24.6276,VALID,130,VALID,0.327344,
2009-01-24, 03:39:04,VALID,1008.86,VALID,0,VALID,89.473,VALID,0.105969,VALID,24.6081,VALID,130,VALID,0.285547,
2009-01-24, 03:40:04,VALID,1008.82,VALID,0,VALID,89.4653,VALID,0,VALID,24.6081,VALID,131,VALID,0.106641,
2009-01-24, 03:41:04,VALID,1008.82,VALID,0,VALID,89.4348,VALID,0,VALID,24.5886,VALID,148,VALID,0.769141,
2009-01-24, 03:42:04,VALID,1008.81,VALID,0,VALID,89.4043,VALID,0,VALID,24.6081,VALID,140,VALID,0.389062,
2009-01-24, 03:43:04,VALID,1008.77,VALID,0,VALID,89.4043,VALID,0.105969,VALID,24.5886,VALID,154,VALID,0.718359,
2009-01-24, 03:44:04,VALID,1008.76,VALID,0,VALID,89.3967,VALID,0,VALID,24.5886,VALID,175,VALID,0.588672,
2009-01-24, 03:45:04,VALID,1008.74,VALID,0,VALID,89.3967,VALID,0.105969,VALID,24.5691,VALID,174,VALID,0.466406,
2009-01-24, 03:46:04,VALID,1008.73,VALID,0,VALID,89.4043,VALID,0.105969,VALID,24.5691,VALID,169,VALID,0.791797,
2009-01-24, 03:47:04,VALID,1008.73,VALID,0,VALID,89.4043,VALID,0,VALID,24.5496,VALID,169,VALID,0.469922,
2009-01-24, 03:48:04,VALID,1008.7,VALID,0,VALID,89.412,VALID,0.105969,VALID,24.5496,VALID,169,VALID,0.394531,